Regional Weather Roundup
Issued by NWS Goodland, KS

Home | Current Version | Previous Version | Graphics & Text | Print | Product List | Glossary On
Versions: 1 2 3 4 5 6 7 8 9 10 11 12 13 14 15 16 17 18 19 20 21 22 23 24 25 26 27 28 29 30 31 32 33 34 35 36 37 38 39 40 41 42 43 44 45 46 47 48 49 50
000
ASUS43 KGLD 210959
RWRGLD

GOODLAND FORECAST AREA HOURLY WEATHER ROUNDUP
NATIONAL WEATHER SERVICE GOODLAND KS
400 AM MDT THU SEP 21 2017

...OFFICIAL OBSERVATIONS...

CITY           SKY/WX    TMP DP  RH WIND       PRES   REMARKS
GOODLAND KS    CLEAR     52  43  71 S14       29.80F
HILL CITY KS   CLEAR     51  45  79 CALM      29.82F
IMPERIAL NEB   CLEAR     51  41  68 SE7       29.81F
MCCOOK NEB     CLEAR     50  45  83 E7        29.81F
AKRON CO       CLOUDY    53  37  54 S10       29.78F
BURLINGTON CO  CLEAR     57  41  55 S10       29.81F
LIMON CO       CLOUDY    34  30  85 CALM      29.87F
$$

...UNOFFICIAL OBSERVATIONS...

CITY           SKY/WX    TMP DP  RH WIND       PRES   REMARKS
LENORA KS        N/A     54  32  43 MISG        N/A
NORTON KS      CLEAR     54  45  71 NE6       29.81F
SHARON SPRINGS   N/A     52  42  70 S12         N/A
TRENTON NEB      N/A     51  32  48 SE5         N/A
KIT CARSON CO    N/A     56  40  55 CALM        N/A
YUMA CO        FAIR      43  36  75 CALM      29.78F
$$



USA.gov is the U.S. government's official web portal to all federal, state and local government web resources and services.